Weather in Zabol

Iran     31°02′16″N   61°29′42″E
temp.,
°C
wind,
m/s
gust,
m/s
humid.,
%
clouds,
%
prec.,
mm/h
press.,
hPa
HPBL,
m
8 may, sat
sat801:30+28nw22240 0.0 100811
04:30+27nw3325100 0.0 100813
07:30+27n5731100 0.0 1010210
10:30+33n321995 0.0 1010650
13:30+35nw21145 0.0 10071786
16:30+36n22123 0.0 10052102
19:30+34nnw331520 0.0 100525
22:30+30nnw813273 0.0 1006263
9 may, sun
sun901:30+27n11173795 0.0 1006362
04:30+25nnw1117435 0.0 1006351
07:30+25nnw9124277 0.0 1008430
10:30+29nnw993249 0.0 1009732
13:30+33nnw10922100 0.0 1007905
16:30+34n99196 0.0 1004989
19:30+30nnw692799 0.0 1005368
22:30+25nnw914446 0.0 1006312
10 may, mon
mon1001:30+25nnw91444100 0.0 1006332
04:30+24nnw71142100 0.0 1006220
07:30+25nnw8113880 0.0 1007361
10:30+30n882744 0.0 1008742
13:30+33nnw56245 0.0 10061379
16:30+34nw882244 0.0 10031660
19:30+27ssw8836100 0.3 1006373
22:30+26wnw473699 0.3 1007167
11 may, tue
tue1101:30+27nnw81437100 0.0 1006407
04:30+25nnw12193512 0.0 1007578
07:30+25nnw1520360 0.0 1008784
10:30+29nnw1718240 0.0 10081195
13:30+33nnw1414170 0.0 10061984
16:30+32nw1515150 0.0 10052007
19:30+29nw1419184 0.0 1006888
22:30+27nnw1521162 0.0 1006876
12 may, wed
wed1201:30+25nnw1522170 0.0 1005756
04:30+24nnw1522190 0.0 1005713
07:30+24nnw1621190 0.0 1006794
10:30+29nnw1415130 0.0 10071320
13:30+33nnw1414100 0.0 10051862
16:30+33nnw141590 0.0 10041950
19:30+30nnw1319150 0.0 1004861
22:30+28nnw1623170 0.0 1004721